EW4092 Weather Reports


Display with metric or nautical units.
time (UTC)temp
F
wind
direction
speed
MPH
gust
MPH
rain 1hr
in
rain 24hr
in
rain mn
in
humidity
%
barometer
mb
20260901094542 58 117 0.0 0.0 0.00 0.00 0.00 63 1007.9
20260901093041 58 117 0.0 1.0 0.00 0.00 0.00 64 1008.0
20260901091548 58 117 0.0 1.0 0.00 0.00 0.00 63 1008.0
20260901090039 58 117 0.0 1.0 0.00 0.00 0.00 62 1007.9
20260901084538 58 117 0.0 0.0 0.00 0.00 0.00 62 1007.9
20260901083036 58 117 0.0 1.0 0.00 0.00 0.00 63 1008.0
20260901081540 57 84 0.0 0.0 0.00 0.00 0.00 65 1008.1
20260901080034 58 84 0.0 1.0 0.00 0.00 0.00 64 1008.0
20260901074532 58 84 0.0 2.0 0.00 0.00 0.00 64 1008.2
20260901073030 58 112 0.0 0.0 0.00 0.00 0.00 65 1008.2
20260901071527 60 112 0.0 0.0 0.00 0.00 0.00 61 1008.2
20260901070022 61 111 0.0 0.0 0.00 0.00 0.00 58 1008.4
20260901064524 62 111 0.0 1.0 0.00 0.00 0.00 56 1008.6
20260901063029 62 111 0.0 1.0 0.00 0.00 0.00 57 1008.7
20260901061520 62 110 0.0 2.0 0.00 0.00 0.00 57 1008.5
20260901060019 63 110 0.0 1.0 0.00 0.00 0.00 56 1008.6
20260901054530 63 110 0.0 0.0 0.00 0.00 0.00 56 1008.5
20260901053019 64 110 0.0 0.0 0.00 0.00 0.00 55 1008.7
20260901051517 64 110 0.0 2.0 0.00 0.00 0.00 56 1008.7
20260901050017 64 58 0.0 1.0 0.00 0.00 0.00 58 1008.8
20260901044516 64 58 0.0 0.0 0.00 0.00 0.00 60 1008.9
20260901043019 66 58 0.0 1.0 0.00 0.00 0.00 58 1008.9
20260901041516 68 98 0.0 1.0 0.00 0.00 0.00 55 1008.7
20260901040014 70 98 0.0 1.0 0.00 0.00 0.00 51 1008.6
20260901034521 70 98 0.0 1.0 0.00 0.00 0.00 50 1008.5
20260901033016 70 98 0.0 2.0 0.00 0.00 0.00 49 1008.3
20260901031522 71 71 0.0 1.0 0.00 0.00 0.00 48 1008.2
20260901030011 73 71 0.0 0.0 0.00 0.00 0.00 43 1008.0
20260901024511 77 70 0.0 0.0 0.00 0.00 0.00 38 1008.0
20260901023018 80 71 0.0 0.0 0.00 0.00 0.00 33 1007.9
20260901021509 83 71 0.0 1.0 0.00 0.00 0.00 30 1007.8
20260901020008 83 70 0.0 2.0 0.00 0.00 0.00 29 1008.0
20260901014506 84 108 0.0 2.0 0.00 0.00 0.00 27 1008.1
20260901013009 84 333 0.0 3.0 0.00 0.00 0.00 28 1008.3
20260901011502 86 46 0.0 2.0 0.00 0.00 0.00 26 1008.5
20260901010059 85 153 0.0 1.0 0.00 0.00 0.00 27 1008.5
20260901004601 84 203 0.0 2.0 0.00 0.00 0.00 28 1008.8
20260901003055 84 61 2.0 5.0 0.00 0.00 0.00 27 1008.9
20260901001553 83 251 0.0 4.0 0.00 0.00 0.00 28 1009.1
20260901000051 83 57 2.0 5.0 0.00 0.00 0.00 27 1009.3
20260831234555 83 106 0.0 3.0 0.00 0.00 0.00 27 1009.4
20260831233046 82 288 2.0 4.0 0.00 0.00 0.00 27 1009.7
20260831231544 82 195 2.0 5.0 0.00 0.00 0.00 28 1009.9
20260831230044 82 325 2.0 8.0 0.00 0.00 0.00 28 1010.1
20260831224540 82 69 2.0 5.0 0.00 0.00 0.00 28 1010.2
20260831223042 81 163 2.0 5.0 0.00 0.00 0.00 31 1010.4
20260831221534 82 225 2.0 4.0 0.00 0.00 0.00 30 1010.6
20260831220031 81 100 1.0 4.0 0.00 0.00 0.00 30 1010.9
20260831214528 80 273 3.0 5.0 0.00 0.00 0.00 31 1011.2
20260831213027 80 12 1.0 5.0 0.00 0.00 0.00 32 1011.4
20260831211523 79 162 0.0 6.0 0.00 0.00 0.00 32 1011.5
20260831210021 79 224 1.0 4.0 0.00 0.00 0.00 32 1011.9
20260831204518 78 60 1.0 4.0 0.00 0.00 0.00 33 1012.0
20260831203014 77 290 0.0 5.0 0.00 0.00 0.00 34 1012.1
20260831201515 78 23 0.0 6.0 0.00 0.00 0.00 34 1012.5
20260831200007 77 307 1.0 7.0 0.00 0.00 0.00 35 1012.8
20260831194505 77 128 0.0 2.0 0.00 0.00 0.00 36 1013.0
20260831193002 76 328 1.0 5.0 0.00 0.00 0.00 35 1013.1
20260831191603 75 76 0.0 3.0 0.00 0.00 0.00 36 1013.5
20260831190055 74 288 1.0 3.0 0.00 0.00 0.00 39 1013.7
20260831184552 73 55 1.0 4.0 0.00 0.00 0.00 39 1014.0
20260831183049 72 159 0.0 3.0 0.00 0.00 0.00 40 1014.1
20260831181551 72 152 1.0 5.0 0.00 0.00 0.00 43 1014.4
20260831180042 71 87 2.0 4.0 0.00 0.00 0.00 44 1014.5
20260831174639 69 94 0.0 5.0 0.00 0.00 0.00 47 1014.6
20260831173035 69 108 2.0 5.0 0.00 0.00 0.00 48 1014.8
20260831171531 68 200 1.0 4.0 0.00 0.00 0.00 52 1015.0
20260831170036 66 153 0.0 4.0 0.00 0.00 0.00 55 1015.1
20260831164524 65 105 1.0 4.0 0.00 0.00 0.00 56 1015.2
20260831163021 64 115 0.0 2.0 0.00 0.00 0.00 59 1015.4
20260831161518 62 113 3.0 5.0 0.00 0.00 0.00 61 1015.5
20260831154511 60 110 2.0 6.0 0.00 0.00 0.00 64 1015.8
20260831153010 59 98 2.0 5.0 0.00 0.00 0.00 66 1015.8
20260831151505 58 129 0.0 4.0 0.00 0.00 0.00 68 1015.8
20260831150001 56 94 0.0 2.0 0.00 0.00 0.00 70 1015.8
20260831144600 55 89 0.0 2.0 0.00 0.00 0.00 72 1015.7
20260831143101 54 112 0.0 2.0 0.00 0.00 0.00 74 1015.7
20260831141609 51 91 0.0 1.0 0.00 0.00 0.00 77 1015.7
20260831140058 49 92 0.0 2.0 0.00 0.00 0.00 80 1015.7
20260831134557 49 109 0.0 0.0 0.00 0.00 0.00 79 1015.4
20260831133056 50 108 0.0 1.0 0.00 0.00 0.00 78 1015.3
20260831131559 49 109 0.0 1.0 0.00 0.00 0.00 78 1015.3
20260831130054 49 109 0.0 2.0 0.00 0.00 0.00 78 1015.2
20260831124553 50 88 0.0 2.0 0.00 0.00 0.00 78 1015.2
20260831123049 50 113 0.0 1.0 0.00 0.00 0.00 77 1015.1
20260831121549 52 113 0.0 1.0 0.00 0.00 0.00 77 1015.1
20260831114547 51 110 0.0 1.0 0.00 0.00 0.00 77 1015.3
20260831113049 51 103 0.0 2.0 0.00 0.00 0.00 75 1015.3
20260831111540 53 118 0.0 0.0 0.00 0.00 0.00 74 1015.3
20260831110039 53 119 0.0 1.0 0.00 0.00 0.00 73 1015.2
20260831104539 54 113 2.0 4.0 0.00 0.00 0.00 72 1015.0
20260831103039 54 114 1.0 2.0 0.00 0.00 0.00 73 1015.1
20260831101537 53 115 1.0 4.0 0.00 0.00 0.00 72 1015.1
20260831100037 53 111 0.0 3.0 0.00 0.00 0.00 72 1015.1